QPF
0.00 0.00 0.00 0.00 0.00 0.00 0.00 0.00 0.00 0.00 0.00 0.00 0.01 0.00 0.00 0.00 0.00 0.00 0.00 0.00 0.00 0.00 0.00 0.00 0.00 0.00 0.01 0.01 0.01 0.01 0.01 0.01 0.00 0.00 0.00 0.00 0.00 0.00 0.00 0.00 0.00 0.00 0.00 0.00
0.00 0.00 0.00 0.00 0.00 0.00 0.00 0.00 0.00 0.00 0.00 0.01 0.01 0.00 0.00 0.00 0.00 0.00 0.00 0.00 0.00 0.00 0.00 0.01 0.01 0.01 0.01 0.01 0.01 0.01 0.01 0.00 0.00 0.00 0.00 0.00 0.00 0.00 0.00 0.00 0.00 0.00 0.00 0.00
0.01 0.00 0.00 0.00 0.00 0.00 0.00 0.00 0.00 0.00 0.01 0.01 0.00 0.00 0.00 0.00 0.00 0.00 0.00 0.00 0.00 0.00 0.00 0.00 0.00 0.00 0.00 0.00 0.01 0.01 0.00 0.00 0.00 0.00 0.00 0.00 0.00 0.00 0.00 0.00 0.00 0.00 0.00 0.00
0.01 0.01 0.01 0.00 0.00 0.00 0.00 0.00 0.00 0.01 0.00 0.00 0.00 0.00 0.00 0.00 0.00 0.00 0.00 0.00 0.00 0.00 0.00 0.00 0.00 0.00 0.00 0.00 0.00 0.00 0.00 0.00 0.00 0.00 0.00 0.00 0.00 0.00 0.00 0.00 0.00 0.00 0.00 0.00
0.03 0.02 0.01 0.00 0.00 0.00 0.00 0.00 0.00 0.00 0.00 0.00 0.00 0.00 0.00 0.00 0.00 0.00 0.00 0.00 0.00 0.00 0.00 0.00 0.00 0.00 0.00 0.00 0.00 0.00 0.00 0.00 0.00 0.00 0.00 0.00 0.00 0.00 0.00 0.00 0.00 0.00 0.00 0.00
0.04 0.04 0.02 0.01 0.00 0.00 0.00 0.00 0.00 0.00 0.00 0.00 0.00 0.00 0.00 0.00 0.00 0.00 0.00 0.00 0.00 0.00 0.00 0.00 0.00 0.00 0.00 0.00 0.00 0.00 0.00 0.00 0.00 0.00 0.00 0.00 0.00 0.00 0.00 0.00 0.00 0.00 0.00 0.00
0.05 0.04 0.02 0.01 0.01 0.01 0.01 0.01 0.00 0.00 0.00 0.00 0.00 0.00 0.00 0.00 0.00 0.00 0.00 0.00 0.00 0.00 0.00 0.00 0.00 0.00 0.00 0.00 0.00 0.00 0.00 0.00 0.00 0.00 0.00 0.00 0.00 0.00 0.00 0.00 0.00 0.00 0.00 0.00
0.03 0.04 0.02 0.01 0.01 0.01 0.01 0.01 0.00 0.00 0.00 0.00 0.00 0.00 0.00 0.00 0.00 0.00 0.00 0.00 0.00 0.00 0.00 0.00 0.00 0.00 0.00 0.00 0.00 0.00 0.00 0.00 0.00 0.00 0.00 0.00 0.00 0.00 0.00 0.00 0.00 0.00 0.00 0.00
0.02 0.02 0.01 0.01 0.01 0.01 0.01 0.01 0.01 0.00 0.00 0.00 0.00 0.00 0.00 0.00 0.00 0.00 0.00 0.00 0.00 0.00 0.00 0.00 0.00 0.00 0.00 0.00 0.00 0.00 0.00 0.00 0.00 0.00 0.00 0.00 0.00 0.00 0.00 0.00 0.00 0.00 0.00 0.00
0.03 0.03 0.02 0.01 0.01 0.00 0.00 0.00 0.01 0.01 0.00 0.00 0.00 0.00 0.00 0.00 0.00 0.00 0.00 0.00 0.00 0.00 0.00 0.00 0.00 0.00 0.00 0.00 0.00 0.00 0.00 0.00 0.00 0.00 0.00 0.00 0.00 0.00 0.00 0.00 0.00 0.00 0.00 0.00
0.02 0.01 0.01 0.00 0.00 0.00 0.00 0.00 0.00 0.01 0.01 0.01 0.01 0.00 0.00 0.00 0.00 0.00 0.00 0.00 0.00 0.00 0.00 0.00 0.00 0.00 0.00 0.00 0.00 0.00 0.00 0.00 0.00 0.00 0.00 0.00 0.00 0.00 0.00 0.00 0.00 0.01 0.01 0.01
0.03 0.02 0.02 0.01 0.01 0.00 0.00 0.00 0.00 0.01 0.01 0.01 0.01 0.01 0.01 0.00 0.00 0.00 0.00 0.00 0.00 0.00 0.00 0.00 0.00 0.00 0.00 0.00 0.00 0.00 0.00 0.00 0.00 0.00 0.00 0.01 0.01 0.01 0.01 0.01 0.01 0.00 0.00 0.00
0.01 0.01 0.01 0.01 0.01 0.01 0.01 0.01 0.01 0.00 0.00 0.00 0.00 0.01 0.01 0.01 0.00 0.00 0.00 0.00 0.00 0.00 0.00 0.00 0.01 0.01 0.01 0.01 0.00 0.01 0.01 0.01 0.01 0.01 0.01 0.01 0.01 0.00 0.00 0.00 0.00 0.00 0.00 0.00
0.01 0.01 0.01 0.01 0.01 0.01 0.01 0.01 0.00 0.00 0.00 0.00 0.00 0.00 0.00 0.00 0.00 0.00 0.01 0.01 0.00 0.00 0.01 0.01 0.01 0.01 0.00 0.00 0.00 0.00 0.00 0.00 0.00 0.00 0.00 0.00 0.00 0.00 0.00 0.00 0.00 0.00 0.01 0.01
0.01 0.01 0.01 0.01 0.01 0.01 0.01 0.01 0.01 0.01 0.01 0.01 0.01 0.00 0.00 0.00 0.00 0.00 0.00 0.01 0.01 0.01 0.01 0.01 0.01 0.01 0.00 0.01 0.00 0.00 0.00 0.00 0.00 0.00 0.00 0.00 0.00 0.01 0.01 0.01 0.01 0.01 0.01 0.01
0.00 0.00 0.00 0.00 0.00 0.00 0.01 0.01 0.01 0.01 0.00 0.00 0.00 0.00 0.00 0.00 0.00 0.00 0.00 0.00 0.01 0.01 0.01 0.01 0.01 0.01 0.01 0.01 0.00 0.00 0.00 0.00 0.00 0.00 0.00 0.00 0.01 0.01 0.01 0.01 0.01 0.01 0.01 0.00
0.00 0.00 0.00 0.00 0.00 0.01 0.01 0.01 0.01 0.01 0.01 0.01 0.00 0.00 0.00 0.00 0.00 0.00 0.00 0.01 0.01 0.01 0.01 0.01 0.01 0.01 0.00 0.00 0.00 0.00 0.00 0.01 0.01 0.01 0.01 0.01 0.01 0.01 0.01 0.01 0.01 0.01 0.01 0.00
0.01 0.01 0.01 0.01 0.01 0.01 0.01 0.01 0.01 0.01 0.01 0.01 0.01 0.01 0.01 0.01 0.01 0.01 0.01 0.01 0.01 0.01 0.01 0.01 0.00 0.00 0.00 0.00 0.00 0.00 0.01 0.01 0.01 0.01 0.01 0.01 0.01 0.01 0.01 0.01 0.01 0.01 0.01 0.01
0.01 0.01 0.01 0.01 0.01 0.00 0.00 0.00 0.00 0.00 0.01 0.01 0.01 0.02 0.02 0.01 0.01 0.01 0.01 0.01 0.01 0.00 0.00 0.00 0.00 0.00 0.00 0.00 0.00 0.01 0.01 0.00 0.00 0.00 0.00 0.00 0.00 0.00 0.00 0.00 0.00 0.01 0.01 0.01
0.00 0.00 0.00 0.00 0.00 0.00 0.00 0.00 0.00 0.01 0.01 0.01 0.01 0.01 0.01 0.01 0.01 0.00 0.00 0.00 0.00 0.00 0.00 0.01 0.00 0.00 0.00 0.00 0.01 0.00 0.00 0.00 0.00 0.00 0.00 0.00 0.00 0.00 0.00 0.01 0.01 0.01 0.01 0.01
0.00 0.00 0.00 0.00 0.00 0.00 0.01 0.01 0.01 0.01 0.01 0.00 0.00 0.00 0.00 0.00 0.01 0.01 0.01 0.01 0.01 0.01 0.01 0.01 0.01 0.01 0.01 0.01 0.00 0.00 0.00 0.00 0.00 0.00 0.00 0.00 0.00 0.00 0.00 0.00 0.01 0.01 0.01 0.01
0.01 0.01 0.00 0.00 0.00 0.01 0.01 0.01 0.01 0.01 0.01 0.01 0.01 0.01 0.01 0.01 0.01 0.01 0.01 0.01 0.01 0.01 0.01 0.01 0.01 0.01 0.01 0.00 0.00 0.00 0.00 0.00 0.00 0.00 0.00 0.00 0.00 0.00 0.00 0.00 0.00 0.01 0.01 0.01
0.01 0.01 0.01 0.01 0.01 0.01 0.01 0.01 0.01 0.01 0.01 0.01 0.01 0.01 0.02 0.02 0.02 0.01 0.01 0.01 0.01 0.01 0.01 0.00 0.00 0.00 0.00 0.00 0.00 0.00 0.00 0.00 0.00 0.00 0.00 0.00 0.00 0.00 0.00 0.00 0.01 0.01 0.01 0.01
0.00 0.00 0.00 0.00 0.00 0.01 0.01 0.01 0.01 0.01 0.01 0.01 0.01 0.01 0.01 0.01 0.01 0.01 0.00 0.00 0.00 0.00 0.00 0.00 0.00 0.00 0.00 0.00 0.00 0.00 0.00 0.00 0.00 0.00 0.00 0.00 0.00 0.00 0.01 0.01 0.01 0.01 0.01 0.02
0.00 0.00 0.00 0.00 0.00 0.01 0.01 0.01 0.01 0.01 0.01 0.01 0.00 0.00 0.00 0.00 0.00 0.00 0.00 0.00 0.00 0.00 0.00 0.00 0.00 0.00 0.00 0.00 0.00 0.00 0.00 0.00 0.00 0.00 0.01 0.01 0.01 0.01 0.01 0.01 0.01 0.01 0.02 0.02
0.00 0.00 0.00 0.00 0.00 0.00 0.00 0.00 0.00 0.00 0.00 0.00 0.00 0.00 0.00 0.00 0.00 0.00 0.00 0.00 0.00 0.00 0.00 0.00 0.00 0.00 0.00 0.00 0.00 0.00 0.00 0.00 0.00 0.00 0.00 0.01 0.01 0.01 0.01 0.01 0.01 0.02 0.02 0.01
0.00 0.00 0.00 0.00 0.00 0.00 0.00 0.00 0.00 0.00 0.00 0.00 0.00 0.00 0.00 0.00 0.00 0.00 0.00 0.00 0.00 0.00 0.00 0.00 0.00 0.00 0.00 0.00 0.00 0.00 0.00 0.00 0.00 0.01 0.01 0.01 0.01 0.01 0.01 0.01 0.02 0.02 0.02 0.01
MSLP
1021.40 1021.15 1020.86 1020.54 1020.24 1019.95 1019.69 1019.45 1019.23 1019.02 1018.83 1018.66 1018.52 1018.42 1018.39 1018.43 1018.56 1018.77 1019.04 1019.36 1019.70 1020.02 1020.31 1020.54 1020.72 1020.85 1020.95 1021.02 1021.10 1021.18 1021.28 1021.38 1021.48 1021.56 1021.59 1021.56 1021.46 1021.29 1021.05 1020.76 1020.43 1020.08 1019.73 1019.39
1021.59 1021.28 1020.88 1020.45 1020.00 1019.59 1019.22 1018.90 1018.65 1018.47 1018.33 1018.25 1018.22 1018.23 1018.29 1018.41 1018.57 1018.79 1019.04 1019.32 1019.61 1019.89 1020.14 1020.36 1020.55 1020.70 1020.82 1020.93 1021.04 1021.14 1021.24 1021.35 1021.44 1021.50 1021.51 1021.47 1021.37 1021.20 1020.96 1020.67 1020.35 1020.00 1019.65 1019.31
1021.76 1021.36 1020.85 1020.29 1019.72 1019.19 1018.73 1018.36 1018.10 1017.94 1017.87 1017.87 1017.93 1018.04 1018.18 1018.35 1018.53 1018.73 1018.95 1019.17 1019.40 1019.63 1019.85 1020.05 1020.24 1020.42 1020.57 1020.72 1020.86 1020.99 1021.12 1021.23 1021.31 1021.37 1021.38 1021.34 1021.24 1021.08 1020.85 1020.58 1020.27 1019.93 1019.59 1019.25
1021.85 1021.35 1020.73 1020.06 1019.39 1018.77 1018.25 1017.85 1017.59 1017.47 1017.46 1017.54 1017.69 1017.87 1018.07 1018.27 1018.45 1018.63 1018.80 1018.97 1019.14 1019.32 1019.50 1019.69 1019.88 1020.08 1020.26 1020.45 1020.61 1020.77 1020.91 1021.02 1021.11 1021.17 1021.18 1021.14 1021.05 1020.91 1020.71 1020.46 1020.17 1019.85 1019.51 1019.17
1021.79 1021.19 1020.48 1019.72 1018.98 1018.31 1017.77 1017.37 1017.14 1017.06 1017.12 1017.27 1017.49 1017.73 1017.97 1018.19 1018.37 1018.52 1018.65 1018.77 1018.89 1019.03 1019.18 1019.36 1019.55 1019.76 1019.97 1020.17 1020.36 1020.52 1020.67 1020.78 1020.86 1020.91 1020.92 1020.89 1020.82 1020.70 1020.52 1020.30 1020.03 1019.72 1019.38 1019.04
1021.54 1020.85 1020.08 1019.27 1018.49 1017.82 1017.28 1016.92 1016.73 1016.71 1016.83 1017.05 1017.32 1017.61 1017.88 1018.11 1018.29 1018.42 1018.53 1018.61 1018.71 1018.81 1018.95 1019.12 1019.32 1019.53 1019.75 1019.95 1020.14 1020.31 1020.44 1020.54 1020.60 1020.64 1020.64 1020.61 1020.54 1020.44 1020.28 1020.08 1019.83 1019.53 1019.20 1018.84
1021.04 1020.30 1019.49 1018.68 1017.92 1017.27 1016.78 1016.48 1016.35 1016.39 1016.57 1016.85 1017.18 1017.50 1017.80 1018.04 1018.23 1018.36 1018.46 1018.54 1018.62 1018.72 1018.86 1019.03 1019.22 1019.43 1019.64 1019.84 1020.01 1020.15 1020.25 1020.32 1020.35 1020.36 1020.35 1020.31 1020.24 1020.14 1020.00 1019.81 1019.57 1019.28 1018.95 1018.58
1020.30 1019.54 1018.74 1017.96 1017.26 1016.69 1016.28 1016.05 1016.00 1016.11 1016.35 1016.68 1017.04 1017.40 1017.72 1017.99 1018.20 1018.35 1018.46 1018.55 1018.64 1018.76 1018.90 1019.07 1019.26 1019.46 1019.66 1019.83 1019.97 1020.07 1020.13 1020.15 1020.14 1020.11 1020.07 1020.01 1019.93 1019.83 1019.69 1019.51 1019.28 1018.99 1018.65 1018.27
1019.34 1018.60 1017.85 1017.16 1016.55 1016.08 1015.78 1015.64 1015.67 1015.85 1016.15 1016.52 1016.91 1017.30 1017.65 1017.95 1018.18 1018.36 1018.51 1018.63 1018.75 1018.89 1019.04 1019.22 1019.40 1019.59 1019.76 1019.89 1019.98 1020.03 1020.04 1020.01 1019.95 1019.88 1019.80 1019.72 1019.63 1019.52 1019.38 1019.20 1018.96 1018.68 1018.33 1017.93
1018.20 1017.52 1016.88 1016.30 1015.83 1015.49 1015.31 1015.27 1015.39 1015.64 1015.98 1016.38 1016.80 1017.22 1017.59 1017.92 1018.18 1018.40 1018.58 1018.75 1018.90 1019.06 1019.23 1019.40 1019.58 1019.74 1019.87 1019.96 1020.00 1020.00 1019.95 1019.87 1019.77 1019.66 1019.55 1019.44 1019.33 1019.21 1019.06 1018.88 1018.64 1018.34 1017.98 1017.57
1016.96 1016.40 1015.89 1015.46 1015.15 1014.95 1014.89 1014.97 1015.17 1015.47 1015.85 1016.28 1016.72 1017.15 1017.54 1017.89 1018.19 1018.44 1018.66 1018.85 1019.04 1019.21 1019.38 1019.55 1019.69 1019.82 1019.91 1019.95 1019.94 1019.89 1019.80 1019.68 1019.55 1019.42 1019.28 1019.16 1019.03 1018.89 1018.73 1018.53 1018.28 1017.98 1017.61 1017.19
1015.73 1015.31 1014.96 1014.71 1014.55 1014.51 1014.58 1014.76 1015.03 1015.38 1015.79 1016.23 1016.67 1017.11 1017.51 1017.87 1018.18 1018.46 1018.70 1018.91 1019.10 1019.27 1019.43 1019.56 1019.68 1019.76 1019.80 1019.79 1019.75 1019.66 1019.54 1019.40 1019.25 1019.10 1018.96 1018.82 1018.68 1018.54 1018.36 1018.15 1017.89 1017.58 1017.20 1016.77
1014.61 1014.34 1014.17 1014.08 1014.09 1014.20 1014.39 1014.65 1014.99 1015.37 1015.79 1016.23 1016.67 1017.09 1017.48 1017.84 1018.15 1018.43 1018.66 1018.87 1019.04 1019.19 1019.31 1019.41 1019.48 1019.51 1019.50 1019.45 1019.37 1019.26 1019.13 1018.98 1018.83 1018.69 1018.54 1018.41 1018.27 1018.11 1017.93 1017.71 1017.44 1017.11 1016.73 1016.30
1013.68 1013.57 1013.56 1013.64 1013.80 1014.04 1014.32 1014.66 1015.04 1015.44 1015.86 1016.28 1016.70 1017.09 1017.45 1017.79 1018.08 1018.33 1018.54 1018.72 1018.85 1018.96 1019.03 1019.07 1019.08 1019.05 1019.00 1018.92 1018.82 1018.70 1018.56 1018.43 1018.29 1018.16 1018.03 1017.89 1017.75 1017.59 1017.40 1017.17 1016.89 1016.56 1016.18 1015.76
1013.01 1013.06 1013.19 1013.41 1013.70 1014.03 1014.39 1014.78 1015.18 1015.58 1015.98 1016.36 1016.74 1017.08 1017.41 1017.69 1017.94 1018.15 1018.31 1018.44 1018.52 1018.56 1018.57 1018.55 1018.50 1018.43 1018.34 1018.23 1018.12 1018.00 1017.87 1017.75 1017.64 1017.52 1017.40 1017.28 1017.14 1016.97 1016.77 1016.53 1016.25 1015.92 1015.55 1015.14
1012.66 1012.82 1013.07 1013.39 1013.76 1014.16 1014.57 1014.97 1015.37 1015.75 1016.11 1016.45 1016.76 1017.05 1017.31 1017.54 1017.73 1017.88 1017.98 1018.04 1018.06 1018.04 1017.99 1017.91 1017.80 1017.69 1017.56 1017.44 1017.32 1017.21 1017.10 1017.00 1016.90 1016.80 1016.70 1016.57 1016.43 1016.26 1016.05 1015.80 1015.51 1015.18 1014.83 1014.45
1012.60 1012.85 1013.17 1013.56 1013.98 1014.41 1014.82 1015.21 1015.58 1015.92 1016.22 1016.50 1016.75 1016.97 1017.16 1017.32 1017.44 1017.52 1017.56 1017.56 1017.51 1017.43 1017.32 1017.19 1017.04 1016.89 1016.75 1016.62 1016.50 1016.39 1016.30 1016.21 1016.13 1016.04 1015.94 1015.81 1015.66 1015.47 1015.25 1014.99 1014.70 1014.38 1014.04 1013.69
1012.82 1013.11 1013.47 1013.88 1014.30 1014.72 1015.11 1015.46 1015.78 1016.05 1016.29 1016.49 1016.66 1016.81 1016.92 1017.01 1017.06 1017.08 1017.06 1017.00 1016.90 1016.76 1016.61 1016.44 1016.27 1016.10 1015.94 1015.81 1015.69 1015.60 1015.51 1015.44 1015.36 1015.27 1015.16 1015.02 1014.85 1014.65 1014.41 1014.14 1013.84 1013.54 1013.22 1012.90
1013.24 1013.53 1013.88 1014.28 1014.67 1015.04 1015.38 1015.68 1015.92 1016.12 1016.28 1016.40 1016.50 1016.56 1016.61 1016.63 1016.62 1016.57 1016.50 1016.39 1016.25 1016.08 1015.90 1015.70 1015.52 1015.34 1015.18 1015.04 1014.93 1014.84 1014.76 1014.69 1014.61 1014.51 1014.39 1014.23 1014.04 1013.82 1013.56 1013.28 1012.99 1012.69 1012.39 1012.10
1013.75 1014.02 1014.34 1014.69 1015.03 1015.34 1015.60 1015.82 1015.99 1016.11 1016.19 1016.23 1016.25 1016.25 1016.22 1016.18 1016.11 1016.02 1015.90 1015.76 1015.59 1015.40 1015.19 1014.99 1014.79 1014.61 1014.45 1014.32 1014.21 1014.12 1014.04 1013.96 1013.87 1013.76 1013.62 1013.45 1013.24 1013.00 1012.73 1012.45 1012.16 1011.86 1011.58 1011.32
1014.26 1014.49 1014.76 1015.04 1015.31 1015.55 1015.74 1015.88 1015.96 1016.00 1016.01 1015.98 1015.93 1015.87 1015.79 1015.69 1015.58 1015.44 1015.29 1015.11 1014.92 1014.71 1014.49 1014.28 1014.08 1013.90 1013.74 1013.60 1013.49 1013.39 1013.31 1013.22 1013.12 1013.00 1012.85 1012.67 1012.45 1012.20 1011.93 1011.65 1011.36 1011.08 1010.82 1010.57
1014.70 1014.88 1015.09 1015.30 1015.50 1015.66 1015.77 1015.83 1015.84 1015.82 1015.76 1015.67 1015.56 1015.44 1015.31 1015.17 1015.02 1014.85 1014.66 1014.46 1014.24 1014.02 1013.79 1013.56 1013.35 1013.16 1012.99 1012.85 1012.73 1012.63 1012.53 1012.44 1012.33 1012.21 1012.06 1011.88 1011.67 1011.43 1011.17 1010.90 1010.62 1010.36 1010.10 1009.87
1015.00 1015.14 1015.29 1015.44 1015.56 1015.65 1015.69 1015.69 1015.64 1015.56 1015.44 1015.31 1015.16 1014.99 1014.82 1014.64 1014.45 1014.25 1014.03 1013.80 1013.56 1013.31 1013.06 1012.82 1012.59 1012.38 1012.19 1012.04 1011.91 1011.79 1011.69 1011.60 1011.49 1011.37 1011.24 1011.07 1010.88 1010.67 1010.43 1010.18 1009.93 1009.68 1009.44 1009.21
1015.17 1015.26 1015.36 1015.44 1015.51 1015.53 1015.52 1015.46 1015.36 1015.23 1015.08 1014.91 1014.72 1014.52 1014.32 1014.11 1013.88 1013.65 1013.40 1013.13 1012.86 1012.58 1012.30 1012.03 1011.77 1011.54 1011.33 1011.16 1011.01 1010.89 1010.79 1010.69 1010.60 1010.50 1010.38 1010.25 1010.09 1009.91 1009.72 1009.50 1009.28 1009.05 1008.82 1008.59
1015.23 1015.27 1015.32 1015.35 1015.36 1015.33 1015.26 1015.16 1015.02 1014.86 1014.68 1014.48 1014.26 1014.04 1013.81 1013.56 1013.31 1013.04 1012.76 1012.46 1012.15 1011.83 1011.52 1011.21 1010.93 1010.66 1010.44 1010.24 1010.08 1009.95 1009.84 1009.76 1009.68 1009.60 1009.52 1009.43 1009.31 1009.18 1009.02 1008.85 1008.66 1008.45 1008.24 1008.01
1015.21 1015.22 1015.22 1015.20 1015.15 1015.07 1014.96 1014.81 1014.64 1014.45 1014.24 1014.02 1013.78 1013.54 1013.28 1013.01 1012.73 1012.43 1012.11 1011.78 1011.43 1011.08 1010.73 1010.40 1010.08 1009.80 1009.54 1009.33 1009.16 1009.02 1008.92 1008.84 1008.78 1008.73 1008.68 1008.63 1008.56 1008.46 1008.35 1008.21 1008.05 1007.87 1007.67 1007.45
1015.19 1015.15 1015.09 1015.02 1014.92 1014.78 1014.63 1014.44 1014.24 1014.02 1013.78 1013.54 1013.28 1013.02 1012.74 1012.45 1012.14 1011.82 1011.47 1011.11 1010.74 1010.37 1009.99 1009.64 1009.30 1008.99 1008.72 1008.50 1008.31 1008.18 1008.08 1008.01 1007.96 1007.93 1007.91 1007.88 1007.84 1007.78 1007.70 1007.59 1007.45 1007.29 1007.10 1006.89
Thickness
5532 5537 5534 5536 5538 5533 5527 5525 5523 5534 5536 5549 5546 5544 5543 5541 5538 5536 5535 5533 5532 5530 5528 5527 5526 5525 5525 5524 5523 5522 5520 5519 5518 5517 5515 5514 5513 5512 5511 5510 5509 5509 5507 5506
5524 5531 5528 5530 5535 5533 5532 5531 5529 5532 5537 5545 5540 5537 5533 5532 5531 5530 5529 5527 5525 5523 5521 5519 5518 5518 5517 5516 5514 5513 5512 5510 5509 5507 5506 5504 5503 5501 5500 5499 5498 5497 5495 5494
5509 5518 5519 5524 5539 5534 5530 5530 5530 5532 5539 5536 5534 5532 5529 5526 5525 5524 5523 5521 5518 5516 5514 5513 5511 5510 5508 5507 5505 5503 5502 5500 5499 5497 5495 5494 5492 5490 5489 5487 5486 5484 5483 5482
5494 5503 5507 5539 5542 5537 5531 5532 5529 5531 5531 5531 5530 5528 5524 5521 5518 5516 5515 5513 5511 5508 5506 5504 5503 5501 5499 5497 5495 5493 5491 5490 5488 5486 5485 5483 5481 5479 5477 5475 5474 5472 5471 5470
5484 5487 5505 5524 5531 5526 5522 5526 5527 5525 5524 5522 5520 5516 5512 5513 5511 5509 5507 5505 5502 5499 5497 5495 5493 5491 5489 5486 5484 5482 5481 5479 5478 5476 5473 5471 5469 5468 5466 5464 5462 5461 5460 5459
5477 5484 5498 5520 5523 5522 5519 5515 5521 5517 5514 5510 5506 5499 5502 5505 5502 5499 5497 5493 5491 5488 5486 5484 5483 5480 5478 5475 5473 5472 5471 5470 5467 5465 5462 5460 5457 5456 5454 5452 5450 5449 5448 5447
5471 5475 5489 5506 5507 5509 5502 5509 5508 5506 5504 5499 5495 5495 5494 5492 5489 5488 5485 5483 5480 5478 5475 5474 5471 5468 5466 5463 5462 5462 5460 5457 5455 5452 5450 5448 5445 5443 5441 5439 5437 5435 5435 5434
5459 5460 5479 5494 5490 5491 5493 5493 5492 5491 5490 5486 5483 5482 5480 5478 5476 5474 5472 5470 5468 5465 5463 5461 5459 5456 5453 5452 5452 5449 5447 5444 5441 5439 5437 5435 5432 5429 5427 5425 5422 5421 5421 5421
5464 5475 5480 5478 5480 5481 5478 5476 5476 5474 5474 5472 5470 5468 5466 5464 5461 5459 5458 5456 5454 5451 5449 5447 5445 5443 5441 5440 5438 5436 5433 5430 5427 5425 5422 5420 5418 5415 5413 5411 5409 5408 5407 5407
5447 5457 5461 5462 5462 5463 5463 5463 5462 5461 5459 5457 5455 5453 5450 5448 5445 5444 5442 5441 5439 5437 5434 5433 5431 5430 5428 5427 5425 5422 5419 5416 5413 5411 5409 5406 5404 5402 5399 5397 5395 5394 5393 5393
5434 5442 5444 5448 5448 5448 5448 5447 5446 5445 5443 5442 5439 5437 5434 5432 5430 5429 5428 5426 5424 5422 5421 5420 5418 5416 5415 5413 5410 5408 5405 5403 5400 5398 5395 5393 5391 5389 5387 5386 5384 5382 5382 5381
5429 5432 5429 5431 5434 5433 5432 5432 5431 5429 5427 5426 5424 5422 5420 5418 5416 5415 5413 5411 5409 5408 5407 5405 5404 5403 5401 5399 5397 5394 5391 5389 5386 5383 5381 5379 5377 5376 5376 5375 5374 5373 5371 5370
5420 5420 5417 5418 5419 5418 5417 5417 5416 5414 5413 5411 5410 5408 5406 5404 5403 5401 5399 5397 5396 5395 5394 5392 5390 5389 5388 5386 5384 5381 5378 5376 5373 5371 5368 5366 5363 5362 5362 5363 5362 5361 5360 5359
5403 5401 5400 5402 5403 5403 5402 5402 5401 5400 5399 5398 5396 5395 5392 5390 5389 5387 5386 5385 5384 5382 5380 5379 5377 5376 5376 5373 5371 5368 5366 5364 5362 5359 5356 5354 5351 5349 5348 5347 5348 5348 5348 5347
5387 5386 5386 5387 5387 5386 5386 5385 5384 5383 5383 5382 5381 5380 5379 5377 5376 5375 5374 5373 5371 5369 5368 5366 5365 5365 5364 5361 5359 5356 5354 5351 5349 5347 5344 5342 5340 5337 5336 5335 5334 5334 5335 5335
5371 5370 5370 5369 5371 5371 5370 5369 5368 5369 5368 5368 5367 5367 5366 5365 5364 5363 5361 5359 5357 5357 5357 5355 5354 5354 5352 5349 5347 5344 5342 5341 5338 5335 5333 5330 5328 5326 5324 5323 5322 5322 5322 5323
5354 5355 5355 5355 5357 5357 5356 5356 5355 5356 5355 5355 5355 5355 5353 5352 5350 5349 5349 5347 5346 5346 5346 5344 5344 5343 5341 5338 5335 5333 5331 5329 5327 5324 5322 5319 5317 5315 5313 5312 5311 5311 5312 5312
5344 5345 5344 5344 5343 5343 5344 5343 5342 5342 5342 5342 5342 5340 5339 5338 5338 5338 5337 5336 5334 5334 5334 5333 5332 5331 5329 5327 5325 5322 5319 5317 5315 5313 5311 5308 5306 5305 5303 5301 5301 5301 5302 5301
5332 5332 5333 5333 5332 5331 5331 5331 5330 5330 5330 5328 5328 5328 5328 5327 5326 5326 5325 5323 5321 5322 5325 5323 5322 5320 5318 5317 5314 5311 5308 5306 5304 5302 5300 5299 5298 5295 5293 5292 5291 5291 5291 5291
5319 5320 5321 5321 5321 5319 5319 5319 5318 5318 5318 5316 5315 5315 5315 5316 5315 5314 5312 5311 5313 5313 5314 5313 5311 5309 5307 5305 5303 5300 5297 5295 5293 5291 5289 5287 5286 5285 5284 5283 5282 5282 5282 5282
5307 5308 5308 5308 5308 5308 5307 5307 5307 5307 5307 5305 5304 5304 5305 5305 5304 5302 5300 5301 5304 5302 5302 5302 5300 5298 5296 5295 5293 5290 5287 5285 5283 5282 5280 5279 5277 5276 5276 5275 5274 5274 5275 5275
5295 5295 5296 5296 5295 5296 5296 5296 5296 5296 5296 5295 5295 5294 5294 5294 5293 5292 5292 5292 5293 5293 5292 5290 5289 5288 5287 5286 5283 5280 5278 5276 5275 5273 5271 5270 5269 5269 5268 5268 5267 5268 5268 5268
5284 5285 5285 5285 5285 5285 5286 5285 5285 5285 5285 5285 5285 5285 5284 5284 5283 5282 5284 5284 5283 5283 5282 5281 5280 5280 5279 5277 5274 5272 5270 5268 5267 5265 5264 5263 5262 5261 5261 5261 5262 5262 5262 5262
5274 5274 5275 5275 5274 5274 5275 5277 5277 5277 5276 5276 5276 5276 5275 5274 5275 5275 5274 5275 5275 5274 5273 5272 5272 5272 5271 5268 5266 5264 5262 5261 5259 5258 5257 5256 5255 5255 5255 5255 5256 5256 5257 5257
5265 5264 5264 5263 5264 5266 5267 5268 5268 5268 5267 5268 5268 5268 5267 5266 5266 5267 5266 5265 5266 5265 5264 5264 5264 5263 5261 5259 5257 5256 5255 5253 5252 5250 5250 5250 5250 5250 5250 5250 5250 5251 5252 5252
5256 5256 5257 5257 5257 5258 5259 5259 5259 5260 5260 5261 5262 5261 5260 5259 5258 5258 5258 5257 5257 5257 5256 5255 5254 5253 5252 5251 5250 5249 5248 5247 5246 5246 5245 5245 5245 5244 5245 5245 5245 5245 5246 5247
5249 5248 5249 5250 5251 5251 5251 5250 5250 5251 5251 5252 5253 5253 5252 5251 5251 5250 5250 5249 5249 5248 5248 5247 5246 5245 5244 5243 5243 5242 5241 5241 5240 5240 5240 5240 5240 5240 5241 5241 5241 5241 5242 5243